Theta_e
299 293 291 294 297 297 295 293 292 295 298 294 293 294 296 299 297 297 300 300 299 300 302 302 301 299 298 296 294 293 292 291 292 290 289 288 288 288 288 288 288 287 287 287
295 292 297 299 298 295 293 291 292 295 296 294 292 292 296 297 298 299 299 300 300 299 299 299 299 298 297 295 294 293 292 291 292 291 290 289 289 288 288 288 287 287 287 286
292 295 300 297 295 293 293 291 291 291 294 291 289 287 291 295 298 299 300 300 300 298 297 297 297 297 295 294 293 292 292 292 291 291 290 289 288 286 285 285 285 286 286 286
294 298 296 294 293 294 289 294 293 292 288 284 290 281 289 292 294 295 296 296 298 296 297 298 296 295 295 294 294 293 292 292 292 291 290 287 286 283 284 286 286 285 285 284
292 292 292 292 293 295 291 293 290 289 288 286 287 283 287 292 290 293 295 296 298 296 297 296 296 296 295 293 292 292 291 291 291 290 290 287 285 285 285 285 285 284 284 284
293 295 293 293 292 293 292 290 288 287 285 279 285 285 285 288 291 292 294 295 296 296 296 296 295 295 294 293 291 291 290 290 290 290 289 287 286 285 284 283 283 282 282 282
290 292 293 293 289 290 289 287 280 278 277 279 287 284 289 290 292 293 293 295 295 296 294 293 293 293 293 292 291 291 290 289 290 290 289 288 286 285 284 284 283 282 281 280
286 285 291 292 292 290 287 288 281 274 275 282 285 280 286 294 296 294 295 296 294 294 294 294 293 293 292 291 291 291 290 289 289 289 288 287 286 287 286 284 284 282 280 280
286 286 289 290 290 293 287 283 289 283 277 276 284 286 290 292 293 293 294 293 292 292 293 294 293 292 291 291 291 290 289 289 289 288 288 287 286 285 285 282 281 280 280 280
291 286 289 286 288 288 286 289 282 283 273 272 282 281 285 289 292 292 290 291 292 293 293 293 293 293 292 292 291 290 290 289 289 288 287 287 286 284 282 281 280 279 279 278
292 289 285 286 283 285 283 283 284 285 283 277 278 282 287 291 292 292 291 292 293 294 294 293 293 292 292 291 291 290 289 288 288 287 287 286 284 282 281 280 279 278 278 278
292 289 284 287 289 288 288 287 286 282 281 280 281 284 291 291 291 293 292 293 294 294 294 293 293 291 291 291 290 289 289 288 287 287 286 284 282 281 280 278 277 278 277 277
291 285 280 283 286 284 284 286 289 289 286 283 280 283 293 296 294 292 291 291 293 293 293 294 293 291 291 290 289 289 288 288 286 286 285 283 281 280 278 277 277 277 276 276
295 287 284 280 284 287 285 286 287 286 282 283 283 285 290 293 293 295 296 296 293 293 293 292 292 291 291 290 289 289 288 288 286 285 284 282 280 279 277 276 276 276 275 275
290 283 285 287 288 288 287 286 286 284 285 281 285 285 289 292 293 295 296 296 294 295 295 295 291 291 290 288 287 287 287 286 285 284 283 281 279 277 276 275 275 275 275 274
290 283 284 282 285 285 283 286 286 286 286 287 286 285 292 294 295 294 294 295 294 295 296 293 291 289 288 287 288 285 285 284 284 283 281 278 276 276 275 275 275 274 274 274
286 284 282 279 284 283 280 284 285 286 288 287 283 288 293 293 293 294 295 296 296 296 295 291 290 289 288 287 286 284 282 281 281 280 278 276 275 274 274 274 274 274 273 273
285 284 284 282 283 274 284 291 290 287 289 290 290 291 294 294 295 296 297 297 295 295 293 290 288 289 290 286 283 281 281 280 278 277 276 275 274 274 274 273 272 272 272 272
293 288 283 280 279 283 285 288 287 286 286 291 291 292 294 295 295 295 298 298 296 297 293 290 289 288 286 282 280 280 278 278 277 276 274 274 273 272 272 271 271 271 271 271
291 291 285 283 278 276 285 291 294 291 281 292 293 292 292 293 287 291 297 293 292 293 290 288 285 283 281 279 279 278 276 275 275 275 274 274 274 272 271 271 271 271 271 271
283 284 281 282 280 283 289 291 290 280 283 293 294 293 293 289 292 294 290 290 291 290 286 283 281 281 280 278 278 276 275 274 276 275 273 272 272 272 271 271 271 270 269 270
282 281 281 282 279 277 287 289 284 285 290 291 291 290 290 290 290 289 290 289 287 286 281 281 280 278 277 277 277 275 274 275 275 273 271 271 271 271 270 269 269 268 268 267
276 278 275 277 277 284 286 284 288 289 289 287 287 288 289 288 289 289 288 288 287 284 283 280 278 276 274 275 276 274 274 274 272 270 269 269 269 269 268 267 266 266 267 267
277 281 276 276 281 281 283 286 289 289 287 288 289 289 290 289 289 289 287 287 286 284 282 278 275 275 273 274 275 274 273 271 269 268 267 268 268 266 266 267 267 267 266 267
275 276 274 273 276 278 280 282 284 285 285 284 284 283 284 285 286 288 289 289 288 286 280 277 277 277 275 273 273 272 271 270 268 267 266 267 267 266 266 267 267 268 269 268
276 274 271 270 277 278 278 281 282 280 279 278 279 280 283 284 284 285 286 287 288 289 283 277 276 276 274 272 272 269 269 269 268 266 266 266 266 266 266 266 267 271 270 272
Wind_Speed
7 6 14 20 16 18 13 15 16 20 8 9 16 17 18 17 9 12 16 17 13 14 11 15 16 13 15 14 15 16 15 12 10 7 7 5 7 5 4 5 8 8 6 6
4 17 19 9 11 9 8 12 17 16 8 9 11 13 12 10 16 16 17 17 19 11 9 9 16 15 17 17 16 16 17 15 13 10 8 4 5 4 4 4 6 7 7 6
20 8 18 10 11 12 18 13 19 18 12 5 4 8 13 12 18 20 19 19 19 12 10 11 16 16 13 16 18 18 19 17 14 10 7 3 5 4 4 5 5 6 8 7
18 17 18 15 16 10 21 9 10 11 7 10 9 9 8 7 10 10 15 13 17 9 9 12 14 16 17 17 15 16 16 16 14 14 13 10 9 7 5 7 5 6 8 7
8 4 6 13 20 10 15 5 4 4 6 6 7 9 8 12 10 12 11 13 17 6 10 12 16 17 15 14 14 14 14 13 14 15 13 11 8 5 5 5 10 7 6 7
17 3 3 4 3 1 4 1 4 3 2 10 12 13 8 9 10 6 8 12 9 8 8 8 8 10 11 12 12 13 15 15 14 15 14 15 14 10 8 7 8 6 5 5
6 20 5 5 2 1 3 4 4 4 3 13 13 15 16 5 8 10 11 19 9 9 9 9 12 12 12 15 15 14 17 18 17 18 17 16 14 11 12 12 9 8 5 4
6 6 18 10 16 7 9 9 8 8 5 18 5 10 7 9 12 12 14 15 10 10 9 10 11 12 12 13 16 16 19 18 18 17 18 14 13 10 9 11 9 7 6 6
8 8 6 5 2 9 6 8 4 3 1 4 11 11 7 7 11 11 15 7 9 9 9 11 9 9 9 12 16 18 18 17 17 17 14 14 13 12 11 9 7 6 6 5
5 9 7 3 4 3 3 1 3 2 3 9 22 10 16 8 17 11 8 9 7 8 9 9 10 11 10 12 13 14 15 17 17 16 15 13 13 10 8 9 9 9 7 7
5 7 3 8 10 11 3 4 5 2 6 8 14 14 3 5 6 9 10 7 7 9 9 10 10 9 11 11 13 14 15 16 16 14 15 14 12 10 10 10 9 8 7 8
5 1 5 15 4 1 8 11 11 9 12 4 6 30 8 4 3 8 7 8 8 8 9 9 10 10 11 14 12 15 14 16 16 14 14 14 11 11 11 11 9 9 8 7
5 3 4 13 12 3 7 7 12 11 7 16 20 26 8 21 19 8 9 9 8 9 9 9 7 12 14 13 13 15 15 17 13 14 14 13 13 14 13 12 10 9 8 8
4 10 13 16 15 8 9 14 13 15 11 25 22 31 34 28 23 23 23 15 10 12 9 8 8 10 12 13 14 14 15 15 14 14 15 15 15 14 12 11 10 10 9 8
5 11 19 28 31 31 30 30 27 13 22 23 27 25 29 34 18 24 19 14 6 12 14 12 10 10 11 10 11 12 13 14 14 15 16 15 13 12 11 11 10 9 9 7
15 10 17 23 28 28 30 27 27 34 34 30 30 32 35 31 29 28 25 27 14 18 16 10 11 10 10 10 13 11 12 13 14 15 14 12 12 12 12 11 11 10 8 8
8 9 9 15 22 24 20 35 36 34 31 35 31 42 40 29 33 32 30 25 19 15 15 10 11 10 9 10 13 14 11 10 13 12 12 13 14 13 12 11 11 10 9 8
12 16 12 15 11 22 21 21 28 37 37 35 33 35 31 38 35 25 17 22 14 14 13 11 8 8 9 7 9 9 13 14 16 15 15 15 15 14 13 13 11 10 8 8
23 21 14 14 18 22 7 20 24 26 36 33 25 29 33 29 28 26 25 23 15 20 13 10 8 6 5 8 9 10 11 12 16 15 15 16 16 16 16 14 13 10 8 6
28 25 23 18 16 19 16 26 28 20 18 15 21 26 26 23 15 20 26 7 13 14 9 9 8 5 8 8 12 14 13 13 15 16 17 15 15 16 15 12 12 10 9 7
8 16 25 22 20 16 8 10 4 15 17 19 21 21 18 12 12 14 6 7 6 8 8 4 5 7 7 8 12 13 14 17 15 15 16 16 16 15 13 12 9 10 9 8
13 14 14 15 18 21 15 9 11 15 21 17 17 20 22 20 17 12 12 9 7 4 3 5 6 4 5 8 12 12 15 12 14 15 15 15 15 13 12 12 9 9 9 8
6 4 7 5 8 11 8 10 15 16 10 17 20 22 18 19 19 11 10 10 8 6 6 4 7 8 7 8 10 13 11 14 15 14 14 14 14 12 12 13 12 8 8 6
11 22 14 14 6 25 29 26 13 10 14 12 14 17 18 19 20 18 9 8 6 6 9 5 6 8 10 11 12 8 13 15 16 16 14 14 14 14 11 8 8 7 7 6
14 21 18 25 21 23 19 16 20 13 14 16 16 15 15 17 18 15 16 13 8 7 7 10 12 12 14 13 13 11 16 17 15 15 14 13 11 13 12 9 8 7 6 7
14 17 16 22 23 22 25 24 22 17 17 16 17 20 18 15 17 15 14 12 10 12 6 8 10 11 13 14 14 13 15 18 18 16 13 12 12 10 10 10 9 13 12 12
Wind_Direction
195 183 214 220 214 232 256 267 270 270 257 176 231 240 251 261 239 256 262 259 251 246 235 197 181 164 161 162 166 168 167 171 169 167 165 165 178 177 167 171 156 158 157 163
218 225 229 244 252 263 271 271 266 277 295 209 249 253 254 263 267 253 256 266 260 254 240 182 164 168 171 168 169 169 176 178 182 177 174 161 161 181 164 161 159 165 161 174
221 194 214 228 249 248 247 244 259 264 285 222 322 267 254 252 252 260 262 253 258 242 225 169 168 172 161 170 176 178 181 181 181 170 167 155 112 95 135 169 166 180 170 172
254 242 245 255 247 212 263 230 257 266 278 256 158 282 222 226 230 227 244 253 255 237 218 161 165 172 174 179 177 178 181 183 183 174 178 181 180 167 186 179 167 174 167 174
221 201 193 228 239 225 265 169 218 267 260 303 252 280 227 200 233 243 237 253 260 218 177 159 177 175 174 170 175 182 182 185 185 183 183 181 184 186 155 154 160 162 173 178
261 99 275 247 70 91 129 115 218 233 206 256 205 214 230 200 210 222 232 248 242 155 155 149 148 148 168 170 171 178 185 191 185 186 186 186 185 183 158 157 162 166 174 179
217 235 172 136 174 164 179 142 282 293 194 250 187 223 237 182 177 191 211 243 149 155 165 167 163 171 174 178 179 181 190 197 189 190 194 190 187 187 177 170 171 170 166 176
210 269 180 178 208 174 187 178 172 234 215 274 229 255 247 213 230 207 203 244 155 170 174 179 178 179 183 179 185 188 194 198 194 192 196 193 187 190 185 177 171 174 169 166
212 246 26 144 140 158 183 211 198 249 128 311 233 264 306 255 238 218 225 161 174 181 179 184 182 181 183 188 189 196 195 200 200 195 195 197 194 190 181 166 155 162 155 160
271 269 177 118 48 287 199 202 126 223 250 240 276 281 271 196 234 219 225 218 223 204 192 189 190 185 182 192 196 197 199 202 200 193 195 196 197 185 164 157 161 161 159 155
219 214 223 125 197 183 156 237 233 246 189 223 273 269 295 160 149 195 222 219 230 204 194 190 198 189 191 191 193 194 196 195 199 193 189 190 190 176 164 164 157 158 151 160
205 230 248 233 180 236 215 224 183 216 237 233 231 265 153 120 137 148 191 196 204 193 197 202 203 180 188 200 193 196 197 197 199 192 184 188 172 168 168 162 156 155 159 156
342 355 327 305 290 192 201 210 230 245 259 241 242 261 181 255 265 229 184 211 213 213 218 223 201 191 202 201 197 197 196 200 189 185 182 175 174 176 172 158 153 151 147 152
135 221 218 236 240 261 267 237 235 225 240 248 245 259 275 266 269 277 275 274 208 219 219 231 239 211 206 202 198 199 200 193 182 182 180 178 176 176 166 152 154 155 152 154
188 223 224 234 243 253 256 264 271 261 243 244 267 259 264 270 265 262 270 268 249 281 270 261 242 232 213 204 200 196 195 185 175 175 178 180 165 160 149 150 150 147 155 162
177 226 214 231 238 247 255 259 261 253 252 253 254 269 253 270 278 273 272 267 272 268 265 248 235 229 224 208 201 192 189 176 169 175 171 156 150 152 152 148 151 153 161 165
193 209 206 234 229 241 246 238 245 253 247 242 246 244 260 261 258 262 270 277 271 258 266 224 227 230 226 214 191 189 172 142 157 158 154 156 154 151 151 150 153 162 167 164
204 214 226 252 233 230 230 246 234 238 242 246 243 247 249 251 260 265 271 268 261 263 265 243 223 220 226 207 173 145 148 151 155 159 158 157 156 156 152 153 158 159 163 172
224 230 243 245 238 260 246 228 224 224 238 244 259 245 248 260 262 270 254 254 265 266 249 228 199 194 166 142 133 136 146 159 163 168 161 160 158 157 157 161 158 156 158 162
229 226 234 234 246 251 245 239 247 247 252 247 229 241 239 243 247 249 259 249 219 233 226 209 167 159 151 154 143 145 155 163 177 173 167 163 160 156 157 158 155 150 151 153
213 233 235 232 245 251 234 274 350 242 269 256 260 261 270 252 240 265 269 245 231 218 190 136 146 156 165 150 148 159 163 185 177 167 159 156 159 154 154 148 151 144 142 148
269 239 224 233 236 245 2 320 261 345 328 1 7 356 348 342 342 332 307 278 248 239 102 136 142 168 160 165 158 172 189 168 165 161 157 158 150 145 144 145 140 139 145 144
265 2 302 331 325 320 316 310 297 296 325 329 314 310 309 311 316 315 309 322 319 275 240 209 189 164 170 191 192 183 178 161 153 152 153 152 145 143 143 143 146 151 150 155
297 302 296 318 312 312 307 303 289 296 301 322 340 327 315 300 295 288 263 251 243 240 242 188 169 202 198 188 195 185 160 155 153 155 157 154 151 141 140 140 146 148 151 167
286 303 293 285 288 294 281 300 305 299 313 310 303 293 280 280 284 291 295 291 282 239 211 186 204 212 217 183 190 166 161 157 161 152 156 158 151 148 144 145 150 148 158 166
271 272 281 282 291 288 300 320 327 334 335 335 323 313 307 310 296 292 281 284 285 281 231 213 211 207 199 189 181 168 164 163 164 157 164 165 152 150 146 139 139 153 159 167